Lid_Strength_Index
5 5 4 2 1 1 1 1 1 1 1 1 2 2 3 2 -0 0 1 2 3 4 3 4 4 3 3 3 3 4 5 6 5 6 6 6 5 5 5 3 2 3 4
6 6 5 3 2 2 1 1 1 1 1 1 2 1 1 2 1 1 1 2 3 3 4 4 5 3 3 3 4 5 6 6 5 7 7 9 8 6 5 4 3 3 3
7 6 6 4 2 2 2 1 1 1 1 1 1 1 1 3 2 2 2 2 3 3 3 4 5 4 3 4 4 5 5 7 6 6 6 9 9 7 6 6 5 4 3
7 6 6 4 2 2 1 1 1 1 1 1 2 3 4 6 4 2 2 2 2 2 3 4 4 4 3 4 4 4 4 5 7 6 6 5 6 8 10 7 5 4 5
8 7 6 4 2 2 2 2 2 1 2 2 3 4 4 4 3 3 3 3 2 2 3 3 4 4 4 3 3 4 4 4 5 6 6 6 5 5 7 9 9 6 6
8 7 6 4 2 2 2 2 3 3 3 4 4 4 4 4 4 4 3 3 3 2 3 3 4 4 4 3 3 3 3 4 4 5 5 6 6 7 7 8 8 8 6
7 6 6 3 3 3 3 3 3 4 4 4 5 4 4 4 4 4 3 3 3 3 3 3 3 4 4 4 3 3 3 3 3 4 5 5 5 5 6 7 8 8 7
8 7 6 4 5 3 3 2 3 3 4 4 4 5 5 4 4 4 2 3 3 3 3 3 3 3 4 4 4 3 3 3 3 3 4 4 4 5 6 7 8 9 9
10 9 8 8 8 8 7 4 2 3 3 4 4 4 4 4 5 4 3 3 3 2 2 2 3 3 3 4 4 4 3 3 3 2 3 4 5 5 5 6 6 7 10
11 11 10 9 9 9 9 8 7 4 3 3 4 4 4 4 4 5 5 5 5 5 4 4 3 3 3 4 4 4 4 4 3 4 4 5 5 6 6 6 7 6 7
12 11 10 9 9 9 9 9 9 9 6 4 4 4 4 4 4 4 4 5 4 5 6 6 5 5 6 6 6 5 5 5 6 5 5 6 5 6 6 6 7 7 7
12 11 11 10 9 8 8 8 8 9 8 7 3 3 3 3 4 4 4 4 5 5 6 6 7 7 7 7 7 6 7 7 7 8 7 6 7 7 7 7 7 7 7
13 12 12 11 10 9 8 8 8 8 7 6 3 3 4 3 3 3 3 4 4 5 5 6 7 7 7 8 8 8 8 8 8 8 9 9 9 10 10 9 9 8 9
14 13 13 12 11 11 10 9 7 7 6 5 4 4 3 3 4 3 3 4 5 5 5 5 6 6 7 7 8 8 8 8 8 9 9 10 10 11 10 10 9 10 10
15 15 14 13 12 12 12 11 8 7 6 5 5 4 3 2 1 2 3 3 4 4 5 6 6 6 7 7 8 8 8 9 9 10 10 10 10 9 10 11 11 11 12
16 16 15 14 13 12 12 12 11 7 7 7 6 5 4 3 3 2 2 3 3 3 4 3 5 6 6 7 6 6 7 8 8 9 10 10 9 9 9 10 10 10 11
17 16 16 15 14 13 12 13 12 8 7 7 8 7 6 5 4 4 3 3 3 3 3 4 4 5 4 6 5 6 7 8 9 9 10 10 11 9 10 9 10 10 10
17 16 16 15 14 13 12 11 10 8 8 8 8 8 7 7 6 5 4 4 3 3 2 3 3 3 3 5 5 6 6 7 8 9 10 10 10 10 10 11 11 11 11
16 16 15 15 14 13 12 11 10 9 9 10 9 9 8 8 7 7 6 6 6 6 5 5 5 5 5 5 5 6 7 8 9 9 10 10 10 9 10 12 13 13 12
16 16 15 15 14 13 13 12 12 11 12 11 10 9 8 8 8 8 7 7 7 7 7 8 7 6 7 6 6 7 9 11 11 10 10 9 10 9 9 12 12 13 12
16 15 16 16 15 13 13 13 13 13 12 11 10 9 9 8 8 9 8 8 8 8 8 8 8 8 7 7 7 8 10 11 12 12 11 9 8 8 9 10 11 11 11
16 16 17 16 14 14 13 14 14 13 12 12 11 11 10 9 9 9 9 9 9 10 10 9 10 8 7 7 7 8 9 9 11 11 10 9 8 8 9 9 8 9 10
16 16 16 15 14 14 14 14 14 13 13 12 12 12 11 10 9 10 10 9 9 9 9 9 10 10 8 7 7 8 9 9 10 11 10 8 8 8 9 9 9 10 12
16 16 15 16 15 15 14 14 14 13 12 12 12 11 11 11 10 10 10 10 9 9 9 10 10 9 9 8 8 9 9 9 11 10 9 9 9 9 10 10 10 12 12
15 15 15 15 15 15 14 13 14 13 13 13 12 11 11 11 11 10 10 10 9 9 9 9 9 10 9 8 7 8 9 11 10 10 11 12 12 12 11 12 12 12 12
15 15 14 15 15 15 14 14 13 14 14 13 12 11 11 11 11 11 10 9 8 8 8 8 8 9 7 6 7 7 8 8 8 11 13 13 13 13 13 13 13 13 13